�������l�o���
Date,Time,MP-1(��Sv/h),MP-2(��Sv/h),MP-3(��Sv/h),MP-4(��Sv/h),MP-5(��Sv/h),MP-6(��Sv/h),MP-7(��Sv/h),MP-8(��Sv/h),����,����(m/s),���J
2017/02/22,00:00,1.058,1.783,1.181,2.061,1.434,0.554,1.018,0.948,�쐼,3.3,��
2017/02/22,00:10,1.059,1.782,1.181,2.059,1.437,0.555,1.019,0.948,��쐼,5.6,��
2017/02/22,00:20,1.059,1.783,1.182,2.056,1.435,0.554,1.019,0.949,�쐼,5.2,��
2017/02/22,00:30,1.060,1.781,1.179,2.058,1.438,0.556,1.022,0.949,���쐼,4.9,��
2017/02/22,00:40,1.056,1.786,1.181,2.056,1.436,0.555,1.019,0.948,���쐼,4.4,��
2017/02/22,00:50,1.057,1.787,1.179,2.059,1.437,0.554,1.019,0.947,���쐼,4.1,��
2017/02/22,01:00,1.057,1.783,1.178,2.057,1.440,0.555,1.020,0.948,���쐼,4.2,��
2017/02/22,01:10,1.057,1.782,1.178,2.056,1.437,0.554,1.020,0.948,��,4.0,��
2017/02/22,01:20,1.057,1.782,1.178,2.057,1.437,0.553,1.020,0.947,���쐼,3.0,��
2017/02/22,01:30,1.057,1.780,1.180,2.055,1.436,0.555,1.019,0.949,��,2.6,��
2017/02/22,01:40,1.058,1.781,1.178,2.058,1.436,0.554,1.019,0.948,���쐼,3.0,��
2017/02/22,01:50,1.058,1.780,1.180,2.056,1.435,0.554,1.020,0.947,���쐼,3.2,��
2017/02/22,02:00,1.057,1.780,1.178,2.057,1.436,0.554,1.020,0.946,���쐼,4.5,��
2017/02/22,02:10,1.059,1.781,1.179,2.058,1.435,0.554,1.020,0.948,��,5.2,��
2017/02/22,02:20,1.057,1.780,1.179,2.057,1.436,0.553,1.019,0.946,��,5.5,��
2017/02/22,02:30,1.058,1.782,1.181,2.056,1.437,0.554,1.018,0.945,��,5.1,��
2017/02/22,02:40,1.056,1.782,1.179,2.059,1.434,0.554,1.019,0.944,��,5.5,��
2017/02/22,02:50,1.059,1.779,1.182,2.057,1.434,0.554,1.018,0.948,���k��,6.2,��
2017/02/22,03:00,1.059,1.784,1.177,2.062,1.434,0.553,1.021,0.948,��,4.0,��
2017/02/22,03:10,1.056,1.779,1.177,2.059,1.433,0.553,1.020,0.945,���k��,4.0,��
2017/02/22,03:20,1.057,1.780,1.178,2.058,1.433,0.553,1.018,0.946,���k��,4.7,��
2017/02/22,03:30,1.055,1.782,1.175,2.056,1.435,0.553,1.018,0.946,���k��,3.4,��
2017/02/22,03:40,1.057,1.779,1.179,2.055,1.435,0.553,1.020,0.946,��,3.6,��
2017/02/22,03:50,1.055,1.780,1.177,2.059,1.432,0.554,1.018,0.947,��,3.3,��
2017/02/22,04:00,1.056,1.780,1.176,2.057,1.436,0.552,1.019,0.947,���쐼,3.1,��
2017/02/22,04:10,1.057,1.781,1.176,2.055,1.436,0.553,1.018,0.947,���쐼,3.4,��
2017/02/22,04:20,1.055,1.781,1.176,2.054,1.434,0.554,1.018,0.947,���쐼,3.7,��
2017/02/22,04:30,1.056,1.780,1.177,2.057,1.435,0.555,1.021,0.947,���쐼,3.9,��
2017/02/22,04:40,1.054,1.779,1.175,2.059,1.435,0.553,1.019,0.945,��,3.3,��
2017/02/22,04:50,1.054,1.779,1.178,2.056,1.432,0.554,1.018,0.947,���쐼,2.9,��
2017/02/22,05:00,1.056,1.778,1.176,2.055,1.435,0.554,1.019,0.947,���쐼,2.6,��
2017/02/22,05:10,1.056,1.776,1.175,2.059,1.434,0.554,1.018,0.946,���쐼,3.4,��
2017/02/22,05:20,1.055,1.778,1.177,2.056,1.433,0.552,1.018,0.947,���쐼,3.2,��
2017/02/22,05:30,1.056,1.778,1.176,2.060,1.433,0.554,1.019,0.946,��,3.8,��
2017/02/22,05:40,1.053,1.779,1.178,2.056,1.433,0.552,1.020,0.947,��,4.8,��
2017/02/22,05:50,1.057,1.782,1.176,2.056,1.433,0.552,1.020,0.947,���k��,5.8,��
2017/02/22,06:00,1.056,1.777,1.179,2.059,1.434,0.552,1.020,0.947,���k��,6.2,��
2017/02/22,06:10,1.056,1.781,1.177,2.057,1.432,0.553,1.019,0.948,��,6.0,��
2017/02/22,06:20,1.055,1.780,1.175,2.053,1.434,0.551,1.021,0.946,��,4.7,��
2017/02/22,06:30,1.055,1.778,1.178,2.055,1.433,0.553,1.019,0.946,��,4.5,��
2017/02/22,06:40,1.057,1.777,1.175,2.055,1.435,0.553,1.020,0.947,��,5.0,��
2017/02/22,06:50,1.056,1.775,1.177,2.057,1.432,0.553,1.019,0.945,��,5.1,��
2017/02/22,07:00,1.057,1.778,1.178,2.055,1.433,0.553,1.019,0.945,��,4.7,��
2017/02/22,07:10,1.057,1.778,1.176,2.057,1.431,0.552,1.019,0.947,��,5.4,��
2017/02/22,07:20,1.057,1.783,1.176,2.058,1.431,0.552,1.017,0.946,��,5.1,��
2017/02/22,07:30,1.058,1.783,1.174,2.059,1.432,0.552,1.020,0.946,���k��,5.0,��
2017/02/22,07:40,1.058,1.781,1.177,2.058,1.432,0.553,1.021,0.947,��,3.7,��
2017/02/22,07:50,1.059,1.781,1.179,2.057,1.432,0.554,1.018,0.948,��,2.6,��
2017/02/22,08:00,1.058,1.785,1.179,2.060,1.432,0.552,1.020,0.950,���k��,2.2,��
2017/02/22,08:10,1.057,1.780,1.183,2.059,1.436,0.555,1.019,0.947,�k�k��,1.7,��
2017/02/22,08:20,1.056,1.785,1.182,2.062,1.435,0.553,1.020,0.947,�k�k��,1.4,��
2017/02/22,08:30,1.059,1.782,1.182,2.060,1.435,0.554,1.022,0.948,�k�k��,1.1,��
2017/02/22,08:40,1.060,1.784,1.183,2.062,1.436,0.554,1.021,0.948,�k��,2.6,��
2017/02/22,08:50,1.061,1.782,1.183,2.060,1.435,0.552,1.023,0.948,��,1.5,��
2017/02/22,09:00,1.059,1.778,1.184,2.061,1.437,0.553,1.024,0.950,��쓌,2.5,��
2017/02/22,09:10,1.061,1.786,1.184,2.058,1.437,0.554,1.024,0.946,���쓌,2.3,��
2017/02/22,09:20,1.060,1.785,1.183,2.060,1.435,0.555,1.022,0.949,�쓌,3.3,��
2017/02/22,09:30,1.061,1.781,1.180,2.062,1.435,0.552,1.022,0.947,�쓌,2.6,��
2017/02/22,09:40,1.058,1.781,1.183,2.065,1.434,0.557,1.022,0.949,���쓌,1.9,��
2017/02/22,09:50,1.060,1.784,1.184,2.061,1.435,0.554,1.021,0.948,�쓌,3.3,��
2017/02/22,10:00,1.060,1.783,1.184,2.063,1.435,0.554,1.020,0.950,���쓌,3.3,��
2017/02/22,10:10,1.062,1.780,1.184,2.063,1.438,0.555,1.021,0.948,�쓌,3.8,��
2017/02/22,10:20,1.063,1.782,1.185,2.063,1.437,0.555,1.021,0.949,�쓌,4.8,��
2017/02/22,10:30,1.062,1.780,1.184,2.063,1.436,0.554,1.020,0.949,�쓌,3.0,��
2017/02/22,10:40,1.062,1.783,1.185,2.063,1.439,0.555,1.019,0.947,�쓌,4.6,��
2017/02/22,10:50,1.063,1.787,1.184,2.064,1.439,0.554,1.020,0.950,��쓌,5.2,��
2017/02/22,11:00,1.061,1.785,1.185,2.065,1.436,0.554,1.018,0.949,��쓌,5.4,��
2017/02/22,11:10,1.062,1.783,1.187,2.066,1.440,0.556,1.021,0.950,��쓌,6.7,��
2017/02/22,11:20,1.062,1.786,1.188,2.067,1.438,0.554,1.021,0.949,��쓌,6.2,��
2017/02/22,11:30,-,1.781,1.185,2.061,1.439,0.555,1.022,0.950,��쓌,7.1,��
2017/02/22,11:40,-,1.785,1.185,2.062,1.439,0.556,1.020,0.947,��쓌,6.3,��
2017/02/22,11:50,-,1.787,1.190,2.064,1.439,0.556,1.022,0.949,��쓌,7.6,��
2017/02/22,12:00,-,1.789,1.184,2.065,1.442,0.555,1.021,0.949,��쓌,7.5,��
2017/02/22,12:10,-,1.787,1.185,2.066,1.437,0.555,1.021,0.949,��쓌,7.9,��
2017/02/22,12:20,-,1.790,1.184,2.065,1.438,0.555,1.020,0.950,��쓌,10.7,��
2017/02/22,12:30,-,1.788,1.187,2.067,1.439,0.556,1.022,0.949,��쓌,9.9,��
2017/02/22,12:40,-,1.790,1.185,2.066,1.441,0.557,1.022,0.949,��쓌,10.0,��
2017/02/22,12:50,-,1.788,1.187,2.067,1.441,0.560,1.022,0.949,��쓌,12.0,��
2017/02/22,13:00,-,1.791,1.184,2.064,1.441,0.558,1.024,0.950,��쓌,10.9,��
2017/02/22,13:10,-,1.789,1.185,2.067,1.441,0.559,1.022,0.949,��쓌,11.9,��
2017/02/22,13:20,-,1.788,1.186,2.067,1.439,0.558,1.023,0.948,��쓌,12.2,��
2017/02/22,13:30,-,1.792,1.187,2.067,1.439,0.558,1.023,0.948,��쓌,12.8,��
2017/02/22,13:40,-,1.792,1.188,2.069,1.440,0.559,1.022,0.950,��쓌,13.9,��
2017/02/22,13:50,-,1.789,1.187,2.069,1.444,0.559,1.022,0.950,��쓌,13.2,��
2017/02/22,14:00,-,1.790,1.187,2.068,1.440,0.559,1.021,0.951,��쓌,15.7,��
2017/02/22,14:10,-,1.792,1.186,2.067,1.445,0.559,1.022,0.950,��쓌,13.3,��
2017/02/22,14:20,-,1.793,1.186,2.065,1.442,0.558,1.021,0.950,��쓌,14.4,��
2017/02/22,14:30,-,1.789,1.188,2.068,1.443,0.559,1.022,0.949,��쓌,11.8,��
2017/02/22,14:40,-,1.791,1.185,2.067,1.439,0.559,1.022,0.951,��쓌,12.0,��
2017/02/22,14:50,-,1.791,1.186,2.068,1.442,0.559,1.021,0.951,��,12.5,��
2017/02/22,15:00,-,1.789,1.188,2.067,1.444,0.559,1.023,0.949,��,14.1,��
2017/02/22,15:10,-,1.791,1.180,2.067,1.445,0.558,1.021,0.952,��,11.6,��
2017/02/22,15:20,-,1.792,1.186,2.068,1.445,0.561,1.022,0.951,��,10.6,��
2017/02/22,15:30,-,1.788,1.185,2.068,1.443,0.559,1.023,0.951,��,11.6,��
2017/02/22,15:40,-,1.794,1.188,2.068,1.446,0.559,1.024,0.951,��,10.3,��
2017/02/22,15:50,-,1.792,1.188,2.071,1.445,0.559,1.023,0.950,��쓌,11.3,��
2017/02/22,16:00,1.065,1.794,1.189,2.071,1.444,0.559,1.024,0.951,��쓌,11.1,��
2017/02/22,16:10,1.066,1.790,1.189,2.068,1.445,0.559,1.021,0.952,��,10.7,��
2017/02/22,16:20,1.067,1.792,1.190,2.071,1.444,0.558,1.022,0.950,��,10.3,��
2017/02/22,16:30,1.067,1.789,1.187,2.069,1.445,0.559,1.023,0.949,��,8.3,��
2017/02/22,16:40,1.067,1.794,1.190,2.070,1.444,0.559,1.027,0.949,��,9.9,��
2017/02/22,16:50,1.069,1.794,1.187,2.069,1.445,0.559,1.023,0.950,��쓌,8.3,��
2017/02/22,17:00,1.066,1.796,1.188,2.068,1.446,0.559,1.024,0.948,��,7.9,��
2017/02/22,17:10,1.067,1.793,1.187,2.068,1.443,0.560,1.024,0.951,��,9.0,��
2017/02/22,17:20,1.067,1.789,1.188,2.068,1.445,0.560,1.025,0.950,��,8.4,��
2017/02/22,17:30,1.067,1.791,1.186,2.068,1.444,0.561,1.024,0.950,��쓌,9.4,��
2017/02/22,17:40,1.067,1.791,1.186,2.068,1.443,0.558,1.024,0.951,��쓌,9.5,��
2017/02/22,17:50,1.068,1.794,1.189,2.066,1.442,0.558,1.023,0.951,��쓌,8.5,��
2017/02/22,18:00,1.065,1.795,1.188,2.069,1.444,0.560,1.024,0.951,��,7.3,��
2017/02/22,18:10,1.070,1.793,1.190,2.067,1.444,0.558,1.024,0.950,��쓌,7.6,��
2017/02/22,18:20,1.067,1.792,1.190,2.068,1.441,0.558,1.024,0.949,��쓌,7.4,��
2017/02/22,18:30,1.067,1.791,1.187,2.068,1.445,0.559,1.025,0.952,��쓌,7.1,��
2017/02/22,18:40,1.067,1.792,1.188,2.069,1.442,0.559,1.024,0.953,��쓌,5.4,��
2017/02/22,18:50,1.069,1.795,1.190,2.065,1.445,0.560,1.026,0.950,��쓌,5.6,��
2017/02/22,19:00,1.068,1.790,1.187,2.070,1.446,0.560,1.028,0.950,��,3.1,��
2017/02/22,19:10,1.068,1.794,1.187,2.067,1.444,0.560,1.027,0.949,��쓌,4.5,��
2017/02/22,19:20,1.070,1.794,1.190,2.068,1.446,0.558,1.025,0.951,��,5.1,��
2017/02/22,19:30,1.068,1.791,1.189,2.068,1.445,0.560,1.026,0.950,��,3.4,��
2017/02/22,19:40,1.069,1.794,1.189,2.067,1.446,0.560,1.025,0.951,��쓌,2.5,��
2017/02/22,19:50,1.068,1.792,1.187,2.066,1.444,0.561,1.027,0.949,��쓌,3.5,��
2017/02/22,20:00,1.068,1.793,1.192,2.067,1.441,0.560,1.027,0.951,��쓌,3.7,��
2017/02/22,20:10,1.070,1.793,1.188,2.068,1.446,0.559,1.025,0.951,��쓌,4.2,��
2017/02/22,20:20,1.069,1.789,1.187,2.066,1.443,0.560,1.025,0.953,��쓌,4.2,��
2017/02/22,20:30,1.070,1.788,1.187,2.066,1.443,0.558,1.026,0.950,��쓌,3.9,��
2017/02/22,20:40,1.072,1.789,1.190,2.066,1.443,0.559,1.026,0.951,��,3.6,��
2017/02/22,20:50,1.069,1.789,1.189,2.067,1.446,0.559,1.026,0.952,��,2.6,��
2017/02/22,21:00,1.070,1.789,1.187,2.069,1.443,0.559,1.026,0.952,��쓌,2.3,��
2017/02/22,21:10,1.070,1.791,1.189,2.067,1.443,0.559,1.027,0.950,�쓌,1.4,��
2017/02/22,21:20,1.068,1.789,1.188,2.063,1.442,0.559,1.026,0.952,�쓌,1.5,��
2017/02/22,21:30,1.069,1.789,1.185,2.068,1.442,0.562,1.025,0.950,���쓌,1.2,��
2017/02/22,21:40,1.070,1.792,1.189,2.065,1.448,0.561,1.024,0.952,�쓌,1.5,��
2017/02/22,21:50,1.070,1.786,1.188,2.066,1.442,0.558,1.027,0.951,�쓌,2.3,��
2017/02/22,22:00,1.067,1.791,1.190,2.066,1.447,0.557,1.024,0.952,�쓌,2.9,��
2017/02/22,22:10,1.070,1.789,1.186,2.066,1.445,0.560,1.026,0.951,�쓌,1.2,��
2017/02/22,22:20,1.069,1.791,1.189,2.064,1.442,0.559,1.025,0.951,�쓌,1.2,��
2017/02/22,22:30,1.071,1.791,1.188,2.069,1.442,0.559,1.027,0.951,�쓌,0.9,��
2017/02/22,22:40,1.072,1.790,1.187,2.068,1.442,0.560,1.025,0.951,��쓌,0.9,��
2017/02/22,22:50,1.069,1.790,1.187,2.065,1.445,0.561,1.025,0.950,�쓌,1.2,��
2017/02/22,23:00,1.072,1.789,1.187,2.067,1.443,0.560,1.027,0.951,��,1.2,��
2017/02/22,23:10,1.070,1.792,1.190,2.069,1.443,0.558,1.026,0.952,��쓌,1.9,��
2017/02/22,23:20,1.070,1.789,1.189,2.067,1.446,0.560,1.025,0.951,��쓌,3.4,��
2017/02/22,23:30,1.070,1.792,1.190,2.066,1.441,0.559,1.027,0.951,��쓌,3.1,��
2017/02/22,23:40,1.069,1.790,1.191,2.068,1.442,0.562,1.028,0.951,��쓌,2.3,��
2017/02/22,23:50,1.069,1.789,1.189,2.068,1.442,0.560,1.026,0.951,��쓌,2.2,��
